Torna al catalogo

FENGYUN 2D DEB

AttivoGEO
NORAD 33458·DEBRIS·🇨🇳 China

Lanciato Dec 8, 2006 da Xichang Satellite Launch Center

Loading…

TLE

AggiornatoSource: Space-Track

Epoca: Sep 3, 2026, 11:07 UTC

1 33458U 06053D   26246.46364247 -.00000025  00000-0  00000+0 0  9990
2 33458  11.8003  36.4771 0027987  28.1761 150.9673  1.00290244 66166

Traccia FENGYUN 2D DEB in tempo reale con AllMySat

Download on the App Store